QPF
0.01 0.00 0.00 0.00 0.00 0.00 0.00 0.00 0.00 0.01 0.03 0.04 0.06 0.09 0.10 0.12 0.13 0.12 0.17 0.13 0.13 0.17 0.14 0.08 0.05 0.03 0.02 0.02 0.02 0.03 0.04 0.05 0.03 0.03 0.03 0.01 0.00 0.00 0.00 0.00 0.00 0.00 0.00
0.01 0.01 0.00 0.00 0.00 0.00 0.00 0.00 0.00 0.01 0.04 0.06 0.09 0.12 0.11 0.13 0.12 0.11 0.13 0.14 0.14 0.18 0.20 0.15 0.13 0.08 0.05 0.05 0.06 0.07 0.10 0.11 0.09 0.09 0.08 0.04 0.01 0.00 0.00 0.00 0.00 0.00 0.00
0.02 0.01 0.00 0.00 0.00 0.00 0.00 0.00 0.00 0.01 0.04 0.06 0.08 0.08 0.08 0.07 0.07 0.07 0.08 0.09 0.12 0.19 0.23 0.26 0.23 0.16 0.11 0.11 0.12 0.13 0.13 0.13 0.13 0.14 0.11 0.04 0.02 0.01 0.00 0.00 0.00 0.00 0.00
0.01 0.01 0.00 0.00 0.00 0.01 0.01 0.01 0.01 0.02 0.03 0.04 0.04 0.03 0.03 0.04 0.04 0.04 0.05 0.06 0.09 0.13 0.19 0.26 0.28 0.25 0.18 0.17 0.18 0.15 0.14 0.12 0.11 0.12 0.12 0.10 0.08 0.04 0.01 0.00 0.00 0.00 0.00
0.01 0.01 0.01 0.01 0.02 0.02 0.01 0.01 0.02 0.02 0.02 0.02 0.02 0.01 0.02 0.02 0.03 0.03 0.03 0.03 0.05 0.07 0.13 0.22 0.27 0.29 0.28 0.28 0.29 0.22 0.18 0.14 0.09 0.07 0.10 0.18 0.23 0.18 0.06 0.01 0.00 0.00 0.00
0.02 0.02 0.03 0.02 0.02 0.02 0.02 0.01 0.01 0.01 0.01 0.01 0.00 0.00 0.01 0.01 0.02 0.03 0.02 0.02 0.03 0.04 0.09 0.15 0.19 0.21 0.23 0.28 0.30 0.29 0.23 0.18 0.14 0.08 0.06 0.10 0.23 0.33 0.25 0.09 0.02 0.00 0.00
0.04 0.05 0.04 0.03 0.03 0.02 0.02 0.01 0.01 0.01 0.00 0.00 0.00 0.01 0.01 0.01 0.02 0.02 0.01 0.01 0.02 0.03 0.05 0.08 0.12 0.16 0.20 0.25 0.31 0.33 0.28 0.24 0.21 0.13 0.08 0.09 0.13 0.22 0.32 0.24 0.10 0.02 0.01
0.13 0.12 0.09 0.06 0.03 0.02 0.01 0.01 0.00 0.00 0.00 0.00 0.00 0.00 0.00 0.01 0.01 0.01 0.01 0.01 0.01 0.01 0.01 0.03 0.07 0.13 0.19 0.24 0.29 0.33 0.33 0.31 0.28 0.23 0.16 0.14 0.17 0.20 0.26 0.27 0.18 0.08 0.04
0.24 0.26 0.22 0.14 0.04 0.01 0.01 0.01 0.00 0.00 0.00 0.00 0.00 0.00 0.00 0.00 0.00 0.00 0.00 0.00 0.00 0.00 0.01 0.01 0.04 0.09 0.13 0.17 0.19 0.25 0.29 0.30 0.26 0.26 0.23 0.23 0.24 0.26 0.25 0.26 0.24 0.17 0.09
0.33 0.36 0.30 0.17 0.06 0.02 0.01 0.01 0.00 0.00 0.00 0.00 0.00 0.00 0.00 0.00 0.00 0.00 0.00 0.00 0.00 0.00 0.00 0.01 0.03 0.04 0.06 0.08 0.09 0.12 0.18 0.20 0.22 0.25 0.25 0.26 0.28 0.31 0.30 0.29 0.28 0.24 0.15
0.40 0.37 0.32 0.21 0.09 0.03 0.01 0.01 0.01 0.02 0.01 0.00 0.00 0.00 0.00 0.00 0.00 0.00 0.00 0.00 0.00 0.00 0.00 0.01 0.01 0.01 0.03 0.03 0.04 0.06 0.11 0.13 0.14 0.17 0.20 0.22 0.27 0.32 0.35 0.33 0.30 0.28 0.21
0.24 0.25 0.23 0.17 0.08 0.04 0.02 0.02 0.03 0.03 0.03 0.01 0.01 0.02 0.01 0.00 0.00 0.00 0.00 0.00 0.00 0.00 0.00 0.00 0.00 0.00 0.01 0.01 0.01 0.03 0.05 0.08 0.09 0.10 0.13 0.16 0.22 0.28 0.35 0.39 0.33 0.28 0.25
0.12 0.12 0.13 0.14 0.08 0.05 0.05 0.06 0.08 0.09 0.07 0.05 0.03 0.03 0.02 0.02 0.01 0.01 0.01 0.00 0.00 0.01 0.01 0.01 0.01 0.00 0.00 0.01 0.01 0.01 0.02 0.03 0.05 0.07 0.10 0.14 0.17 0.20 0.24 0.29 0.32 0.28 0.24
0.09 0.07 0.05 0.07 0.07 0.07 0.07 0.09 0.14 0.20 0.19 0.16 0.10 0.08 0.07 0.06 0.04 0.03 0.02 0.02 0.02 0.01 0.02 0.02 0.02 0.02 0.02 0.03 0.02 0.01 0.01 0.01 0.02 0.03 0.03 0.04 0.09 0.12 0.15 0.19 0.22 0.23 0.21
0.07 0.06 0.05 0.06 0.07 0.08 0.10 0.12 0.19 0.25 0.28 0.28 0.23 0.17 0.19 0.16 0.11 0.08 0.06 0.05 0.04 0.03 0.04 0.05 0.06 0.06 0.05 0.06 0.04 0.02 0.02 0.01 0.00 0.00 0.00 0.00 0.02 0.04 0.07 0.10 0.12 0.13 0.14
0.09 0.09 0.11 0.09 0.10 0.13 0.19 0.16 0.22 0.27 0.34 0.39 0.38 0.35 0.31 0.24 0.19 0.14 0.10 0.08 0.07 0.07 0.07 0.08 0.09 0.09 0.09 0.08 0.08 0.04 0.02 0.01 0.01 0.01 0.00 0.00 0.01 0.01 0.02 0.03 0.04 0.06 0.08
0.12 0.14 0.15 0.14 0.13 0.18 0.20 0.18 0.22 0.26 0.31 0.35 0.37 0.37 0.32 0.22 0.17 0.13 0.10 0.08 0.08 0.09 0.11 0.12 0.11 0.11 0.14 0.10 0.08 0.07 0.03 0.02 0.02 0.02 0.02 0.01 0.02 0.01 0.01 0.01 0.03 0.03 0.03
0.08 0.15 0.14 0.11 0.12 0.15 0.16 0.18 0.17 0.17 0.17 0.19 0.21 0.21 0.18 0.14 0.10 0.08 0.08 0.07 0.08 0.09 0.11 0.12 0.12 0.11 0.13 0.11 0.12 0.12 0.06 0.05 0.04 0.04 0.03 0.03 0.02 0.02 0.02 0.01 0.02 0.02 0.02
0.04 0.06 0.06 0.06 0.06 0.06 0.06 0.05 0.05 0.05 0.06 0.06 0.07 0.08 0.06 0.04 0.04 0.03 0.03 0.03 0.05 0.07 0.10 0.11 0.11 0.10 0.12 0.14 0.13 0.11 0.07 0.06 0.05 0.05 0.04 0.04 0.05 0.06 0.05 0.03 0.02 0.01 0.02
0.01 0.01 0.02 0.01 0.01 0.01 0.01 0.01 0.01 0.01 0.01 0.01 0.01 0.01 0.01 0.01 0.01 0.01 0.02 0.03 0.05 0.06 0.08 0.11 0.12 0.13 0.13 0.17 0.12 0.14 0.12 0.08 0.06 0.05 0.05 0.07 0.08 0.06 0.05 0.02 0.01 0.01 0.01
0.00 0.00 0.00 0.00 0.00 0.00 0.00 0.00 0.00 0.00 0.00 0.00 0.00 0.00 0.00 0.00 0.00 0.01 0.01 0.02 0.04 0.05 0.06 0.08 0.11 0.15 0.20 0.23 0.18 0.19 0.15 0.08 0.06 0.06 0.05 0.05 0.07 0.05 0.03 0.01 0.01 0.01 0.01
0.00 0.00 0.00 0.00 0.00 0.00 0.00 0.00 0.00 0.00 0.00 0.00 0.00 0.00 0.00 0.00 0.00 0.00 0.01 0.01 0.03 0.04 0.05 0.06 0.08 0.12 0.18 0.21 0.21 0.20 0.16 0.09 0.06 0.05 0.05 0.05 0.05 0.02 0.01 0.00 0.01 0.01 0.01
0.00 0.00 0.00 0.00 0.00 0.00 0.00 0.00 0.00 0.00 0.00 0.00 0.00 0.00 0.00 0.00 0.00 0.00 0.00 0.01 0.02 0.03 0.03 0.04 0.06 0.08 0.14 0.18 0.22 0.18 0.14 0.10 0.07 0.06 0.05 0.04 0.03 0.01 0.00 0.00 0.01 0.01 0.01
0.00 0.00 0.00 0.00 0.00 0.00 0.00 0.00 0.00 0.00 0.00 0.00 0.00 0.00 0.00 0.00 0.00 0.00 0.00 0.01 0.01 0.01 0.01 0.02 0.03 0.05 0.08 0.11 0.15 0.13 0.09 0.07 0.05 0.04 0.03 0.02 0.01 0.01 0.01 0.01 0.01 0.02 0.03
0.00 0.00 0.00 0.00 0.00 0.00 0.00 0.00 0.00 0.00 0.00 0.00 0.00 0.00 0.00 0.00 0.00 0.00 0.00 0.00 0.00 0.00 0.00 0.01 0.01 0.03 0.05 0.09 0.11 0.08 0.06 0.05 0.04 0.03 0.02 0.01 0.01 0.02 0.03 0.04 0.04 0.04 0.04
0.00 0.00 0.00 0.00 0.00 0.00 0.00 0.00 0.00 0.00 0.00 0.00 0.00 0.00 0.00 0.00 0.00 0.00 0.00 0.00 0.00 0.00 0.00 0.00 0.00 0.01 0.03 0.05 0.06 0.05 0.04 0.05 0.05 0.05 0.04 0.05 0.06 0.07 0.08 0.09 0.07 0.06 0.04
MSLP
1005.70 1005.48 1005.43 1005.51 1005.71 1005.99 1006.33 1006.72 1007.16 1007.65 1008.17 1008.73 1009.31 1009.88 1010.41 1010.87 1011.23 1011.49 1011.67 1011.78 1011.86 1011.95 1012.08 1012.29 1012.58 1012.94 1013.35 1013.79 1014.24 1014.67 1015.08 1015.47 1015.83 1016.17 1016.49 1016.76 1016.99 1017.14 1017.21 1017.19 1017.12 1017.01 1016.91
1005.29 1005.08 1005.07 1005.20 1005.45 1005.78 1006.16 1006.58 1007.05 1007.57 1008.13 1008.73 1009.33 1009.92 1010.46 1010.91 1011.25 1011.47 1011.60 1011.67 1011.71 1011.77 1011.89 1012.10 1012.39 1012.76 1013.17 1013.62 1014.07 1014.50 1014.92 1015.32 1015.71 1016.10 1016.47 1016.81 1017.11 1017.32 1017.45 1017.48 1017.44 1017.34 1017.23
1005.00 1004.80 1004.81 1004.99 1005.29 1005.67 1006.09 1006.56 1007.06 1007.61 1008.20 1008.81 1009.44 1010.03 1010.55 1010.97 1011.28 1011.46 1011.55 1011.58 1011.59 1011.63 1011.73 1011.92 1012.20 1012.55 1012.95 1013.37 1013.80 1014.21 1014.62 1015.04 1015.46 1015.89 1016.33 1016.76 1017.14 1017.44 1017.65 1017.74 1017.73 1017.66 1017.55
1004.95 1004.73 1004.75 1004.95 1005.28 1005.68 1006.14 1006.63 1007.16 1007.72 1008.32 1008.94 1009.55 1010.12 1010.62 1011.01 1011.28 1011.42 1011.47 1011.47 1011.46 1011.48 1011.57 1011.74 1012.00 1012.32 1012.69 1013.07 1013.45 1013.83 1014.22 1014.64 1015.08 1015.56 1016.07 1016.57 1017.04 1017.44 1017.73 1017.89 1017.93 1017.88 1017.77
1005.21 1004.95 1004.94 1005.13 1005.44 1005.84 1006.29 1006.78 1007.30 1007.85 1008.44 1009.03 1009.62 1010.15 1010.61 1010.96 1011.19 1011.31 1011.34 1011.32 1011.31 1011.33 1011.41 1011.57 1011.81 1012.10 1012.41 1012.74 1013.07 1013.41 1013.77 1014.16 1014.61 1015.12 1015.68 1016.25 1016.81 1017.28 1017.65 1017.87 1017.96 1017.94 1017.84
1005.79 1005.48 1005.42 1005.54 1005.80 1006.15 1006.55 1006.99 1007.46 1007.97 1008.51 1009.05 1009.59 1010.08 1010.49 1010.81 1011.01 1011.11 1011.14 1011.13 1011.13 1011.16 1011.25 1011.42 1011.64 1011.90 1012.17 1012.45 1012.72 1013.00 1013.31 1013.67 1014.11 1014.62 1015.20 1015.81 1016.41 1016.95 1017.37 1017.65 1017.78 1017.78 1017.70
1006.64 1006.27 1006.13 1006.16 1006.33 1006.57 1006.88 1007.22 1007.62 1008.05 1008.51 1008.99 1009.46 1009.90 1010.27 1010.55 1010.73 1010.84 1010.88 1010.90 1010.93 1011.00 1011.12 1011.30 1011.51 1011.75 1011.99 1012.22 1012.43 1012.66 1012.91 1013.22 1013.62 1014.10 1014.67 1015.28 1015.89 1016.45 1016.90 1017.21 1017.37 1017.41 1017.35
1007.63 1007.20 1006.97 1006.89 1006.93 1007.05 1007.23 1007.46 1007.75 1008.08 1008.45 1008.85 1009.26 1009.64 1009.97 1010.23 1010.41 1010.53 1010.61 1010.67 1010.74 1010.85 1011.01 1011.22 1011.44 1011.68 1011.89 1012.09 1012.26 1012.42 1012.61 1012.87 1013.20 1013.63 1014.14 1014.71 1015.29 1015.84 1016.29 1016.61 1016.81 1016.87 1016.85
1008.62 1008.14 1007.82 1007.64 1007.55 1007.53 1007.58 1007.68 1007.85 1008.07 1008.36 1008.68 1009.02 1009.36 1009.66 1009.91 1010.10 1010.24 1010.35 1010.45 1010.58 1010.74 1010.94 1011.17 1011.42 1011.66 1011.87 1012.05 1012.19 1012.31 1012.45 1012.63 1012.89 1013.24 1013.68 1014.17 1014.69 1015.19 1015.62 1015.95 1016.16 1016.27 1016.29
1009.46 1008.95 1008.57 1008.29 1008.09 1007.95 1007.87 1007.86 1007.93 1008.06 1008.27 1008.53 1008.83 1009.13 1009.41 1009.65 1009.85 1010.01 1010.15 1010.30 1010.46 1010.66 1010.89 1011.16 1011.43 1011.69 1011.90 1012.07 1012.20 1012.30 1012.40 1012.52 1012.71 1012.97 1013.32 1013.72 1014.17 1014.60 1014.99 1015.31 1015.54 1015.69 1015.77
1010.09 1009.58 1009.16 1008.81 1008.52 1008.29 1008.12 1008.03 1008.01 1008.09 1008.25 1008.47 1008.73 1009.01 1009.28 1009.52 1009.73 1009.90 1010.05 1010.21 1010.39 1010.61 1010.85 1011.13 1011.42 1011.69 1011.93 1012.12 1012.25 1012.35 1012.42 1012.51 1012.64 1012.83 1013.09 1013.41 1013.76 1014.13 1014.48 1014.79 1015.04 1015.23 1015.37
1010.53 1010.02 1009.58 1009.19 1008.85 1008.57 1008.35 1008.21 1008.16 1008.21 1008.34 1008.55 1008.80 1009.07 1009.33 1009.55 1009.75 1009.91 1010.05 1010.19 1010.36 1010.56 1010.80 1011.07 1011.36 1011.64 1011.90 1012.11 1012.27 1012.39 1012.48 1012.56 1012.65 1012.79 1012.98 1013.22 1013.50 1013.81 1014.12 1014.42 1014.68 1014.91 1015.10
1010.85 1010.36 1009.91 1009.51 1009.15 1008.84 1008.61 1008.45 1008.40 1008.45 1008.58 1008.79 1009.03 1009.29 1009.54 1009.75 1009.91 1010.03 1010.13 1010.23 1010.35 1010.50 1010.70 1010.94 1011.21 1011.49 1011.77 1012.01 1012.21 1012.37 1012.49 1012.59 1012.68 1012.80 1012.94 1013.13 1013.35 1013.61 1013.89 1014.17 1014.45 1014.71 1014.95
1011.17 1010.69 1010.25 1009.84 1009.48 1009.18 1008.95 1008.81 1008.77 1008.83 1008.98 1009.19 1009.43 1009.68 1009.89 1010.06 1010.18 1010.24 1010.28 1010.30 1010.34 1010.41 1010.54 1010.73 1010.97 1011.24 1011.52 1011.79 1012.04 1012.25 1012.42 1012.56 1012.68 1012.80 1012.93 1013.08 1013.27 1013.49 1013.74 1014.01 1014.28 1014.56 1014.82
1011.60 1011.11 1010.67 1010.26 1009.91 1009.62 1009.41 1009.30 1009.28 1009.36 1009.51 1009.72 1009.95 1010.16 1010.34 1010.46 1010.51 1010.49 1010.44 1010.37 1010.32 1010.30 1010.35 1010.46 1010.65 1010.89 1011.16 1011.46 1011.74 1012.01 1012.24 1012.43 1012.60 1012.74 1012.88 1013.02 1013.19 1013.38 1013.60 1013.84 1014.10 1014.37 1014.64
1012.15 1011.66 1011.20 1010.80 1010.45 1010.18 1009.99 1009.89 1009.89 1009.97 1010.12 1010.31 1010.51 1010.69 1010.81 1010.86 1010.84 1010.74 1010.60 1010.44 1010.29 1010.17 1010.13 1010.16 1010.29 1010.49 1010.74 1011.04 1011.36 1011.67 1011.95 1012.21 1012.42 1012.60 1012.76 1012.91 1013.06 1013.23 1013.41 1013.62 1013.85 1014.10 1014.35
1012.83 1012.31 1011.84 1011.43 1011.09 1010.82 1010.64 1010.55 1010.55 1010.63 1010.75 1010.91 1011.06 1011.18 1011.24 1011.22 1011.13 1010.96 1010.74 1010.49 1010.26 1010.06 1009.93 1009.89 1009.95 1010.10 1010.33 1010.62 1010.94 1011.28 1011.61 1011.91 1012.17 1012.38 1012.57 1012.72 1012.86 1013.00 1013.15 1013.32 1013.51 1013.71 1013.92
1013.51 1012.97 1012.49 1012.08 1011.74 1011.48 1011.30 1011.21 1011.20 1011.25 1011.34 1011.44 1011.54 1011.59 1011.59 1011.51 1011.35 1011.13 1010.85 1010.55 1010.26 1010.00 1009.81 1009.71 1009.70 1009.80 1009.98 1010.25 1010.56 1010.90 1011.25 1011.57 1011.86 1012.11 1012.31 1012.47 1012.60 1012.72 1012.83 1012.95 1013.08 1013.22 1013.38
1014.10 1013.55 1013.07 1012.65 1012.32 1012.06 1011.89 1011.79 1011.76 1011.78 1011.83 1011.88 1011.92 1011.91 1011.85 1011.72 1011.53 1011.27 1010.97 1010.65 1010.33 1010.04 1009.81 1009.66 1009.61 1009.65 1009.79 1010.00 1010.28 1010.60 1010.93 1011.26 1011.56 1011.82 1012.03 1012.19 1012.31 1012.40 1012.48 1012.55 1012.63 1012.71 1012.81
1014.49 1013.94 1013.47 1013.08 1012.76 1012.52 1012.36 1012.26 1012.21 1012.20 1012.21 1012.21 1012.20 1012.15 1012.05 1011.89 1011.68 1011.42 1011.13 1010.81 1010.50 1010.21 1009.97 1009.80 1009.70 1009.69 1009.77 1009.93 1010.15 1010.42 1010.71 1011.01 1011.30 1011.55 1011.76 1011.92 1012.03 1012.11 1012.15 1012.18 1012.21 1012.25 1012.31
1014.63 1014.11 1013.67 1013.31 1013.03 1012.82 1012.68 1012.59 1012.54 1012.51 1012.49 1012.47 1012.42 1012.34 1012.22 1012.05 1011.85 1011.62 1011.35 1011.08 1010.80 1010.54 1010.31 1010.12 1009.99 1009.93 1009.94 1010.03 1010.17 1010.37 1010.61 1010.86 1011.11 1011.34 1011.53 1011.69 1011.79 1011.86 1011.89 1011.89 1011.90 1011.90 1011.93
1014.55 1014.08 1013.69 1013.37 1013.14 1012.97 1012.86 1012.80 1012.77 1012.74 1012.72 1012.68 1012.61 1012.52 1012.41 1012.26 1012.08 1011.89 1011.67 1011.45 1011.22 1011.00 1010.79 1010.60 1010.45 1010.35 1010.29 1010.29 1010.35 1010.46 1010.62 1010.81 1011.00 1011.20 1011.37 1011.51 1011.61 1011.68 1011.70 1011.71 1011.70 1011.69 1011.70
1014.33 1013.91 1013.57 1013.31 1013.13 1013.01 1012.95 1012.93 1012.92 1012.92 1012.90 1012.87 1012.81 1012.74 1012.63 1012.51 1012.38 1012.23 1012.08 1011.91 1011.74 1011.56 1011.38 1011.20 1011.03 1010.88 1010.76 1010.68 1010.65 1010.67 1010.73 1010.84 1010.97 1011.12 1011.26 1011.39 1011.50 1011.57 1011.60 1011.62 1011.62 1011.61 1011.62
1014.09 1013.71 1013.41 1013.20 1013.07 1013.00 1012.98 1013.00 1013.03 1013.06 1013.07 1013.06 1013.03 1012.98 1012.91 1012.82 1012.73 1012.64 1012.54 1012.43 1012.31 1012.17 1012.02 1011.85 1011.66 1011.48 1011.30 1011.15 1011.03 1010.95 1010.93 1010.95 1011.02 1011.11 1011.22 1011.33 1011.44 1011.52 1011.57 1011.61 1011.63 1011.64 1011.66
1013.89 1013.54 1013.27 1013.09 1012.99 1012.95 1012.97 1013.03 1013.10 1013.17 1013.22 1013.25 1013.25 1013.23 1013.20 1013.15 1013.10 1013.05 1013.00 1012.94 1012.86 1012.76 1012.63 1012.48 1012.29 1012.08 1011.85 1011.64 1011.45 1011.29 1011.19 1011.13 1011.13 1011.17 1011.25 1011.34 1011.44 1011.53 1011.60 1011.66 1011.70 1011.73 1011.77
1013.81 1013.45 1013.19 1013.01 1012.91 1012.90 1012.94 1013.02 1013.13 1013.23 1013.32 1013.38 1013.43 1013.45 1013.45 1013.45 1013.43 1013.42 1013.41 1013.38 1013.34 1013.27 1013.17 1013.03 1012.84 1012.62 1012.38 1012.13 1011.88 1011.67 1011.50 1011.38 1011.32 1011.31 1011.35 1011.42 1011.51 1011.61 1011.69 1011.77 1011.83 1011.88 1011.93
Thickness
5807 5812 5814 5815 5812 5808 5803 5800 5795 5791 5785 5777 5771 5765 5762 5761 5759 5758 5756 5753 5750 5747 5743 5740 5738 5735 5731 5727 5724 5719 5714 5710 5709 5703 5699 5701 5704 5705 5705 5704 5703 5703 5703
5796 5803 5806 5807 5806 5803 5800 5796 5792 5788 5782 5777 5771 5766 5761 5757 5755 5754 5752 5748 5746 5743 5740 5736 5734 5732 5728 5724 5721 5717 5710 5706 5705 5699 5691 5687 5691 5697 5700 5700 5700 5700 5699
5788 5794 5797 5799 5799 5796 5794 5791 5787 5782 5777 5773 5766 5760 5754 5751 5748 5747 5746 5745 5742 5739 5736 5733 5730 5727 5725 5721 5717 5714 5709 5702 5700 5700 5692 5683 5681 5687 5692 5695 5696 5696 5696
5786 5787 5789 5788 5788 5787 5786 5782 5778 5774 5770 5766 5760 5754 5748 5743 5744 5744 5743 5741 5739 5736 5733 5730 5726 5723 5720 5717 5714 5712 5709 5703 5696 5695 5695 5692 5689 5683 5683 5688 5692 5693 5693
5779 5780 5781 5780 5778 5777 5774 5770 5767 5764 5762 5759 5755 5751 5746 5743 5741 5740 5737 5735 5733 5731 5729 5726 5722 5719 5716 5713 5710 5708 5705 5701 5697 5694 5691 5688 5686 5686 5682 5680 5685 5688 5690
5767 5769 5770 5770 5766 5765 5762 5759 5756 5754 5754 5753 5750 5747 5743 5739 5736 5733 5731 5729 5727 5725 5724 5721 5718 5715 5712 5709 5706 5704 5701 5698 5696 5694 5692 5688 5684 5682 5681 5679 5680 5682 5686
5749 5752 5753 5754 5753 5752 5752 5749 5747 5746 5748 5747 5745 5743 5740 5737 5733 5730 5727 5724 5720 5718 5717 5716 5713 5710 5708 5705 5702 5699 5696 5694 5692 5691 5690 5689 5687 5685 5683 5679 5677 5678 5682
5728 5734 5739 5742 5744 5744 5745 5744 5743 5743 5743 5742 5740 5739 5736 5733 5730 5727 5723 5720 5717 5714 5713 5711 5708 5706 5704 5701 5698 5694 5692 5690 5688 5687 5686 5685 5685 5684 5682 5680 5676 5673 5676
5712 5717 5722 5727 5732 5736 5738 5739 5739 5739 5738 5737 5735 5733 5731 5728 5725 5722 5719 5716 5713 5711 5708 5706 5703 5701 5698 5696 5693 5690 5687 5686 5685 5684 5683 5682 5681 5681 5681 5680 5678 5674 5671
5702 5706 5710 5714 5722 5728 5733 5735 5735 5734 5733 5731 5729 5727 5724 5722 5720 5717 5713 5710 5708 5705 5702 5700 5697 5695 5693 5690 5688 5686 5684 5682 5681 5681 5680 5679 5678 5678 5677 5677 5677 5676 5675
5695 5699 5704 5709 5717 5723 5727 5728 5729 5728 5726 5725 5722 5719 5717 5716 5714 5711 5708 5705 5703 5700 5697 5694 5691 5689 5687 5685 5683 5681 5680 5678 5677 5677 5677 5676 5676 5674 5673 5673 5673 5674 5674
5692 5698 5704 5708 5713 5718 5721 5722 5723 5721 5720 5718 5715 5712 5711 5709 5706 5704 5702 5700 5697 5694 5692 5689 5686 5683 5682 5680 5678 5677 5676 5675 5674 5673 5673 5672 5672 5671 5670 5669 5669 5670 5671
5689 5696 5701 5705 5709 5713 5715 5717 5717 5716 5714 5711 5708 5705 5702 5700 5698 5697 5695 5693 5691 5688 5686 5683 5680 5678 5676 5675 5674 5672 5671 5670 5670 5670 5669 5669 5669 5667 5667 5666 5665 5665 5666
5681 5688 5694 5700 5705 5707 5709 5712 5712 5711 5708 5705 5700 5697 5694 5691 5690 5689 5688 5687 5686 5683 5680 5678 5676 5674 5672 5670 5669 5667 5666 5665 5665 5665 5665 5664 5664 5664 5663 5662 5661 5661 5661
5673 5679 5684 5690 5695 5698 5701 5704 5704 5704 5701 5695 5691 5688 5686 5684 5684 5683 5682 5681 5681 5680 5677 5674 5671 5669 5667 5667 5665 5663 5662 5660 5659 5659 5659 5659 5659 5659 5659 5659 5657 5657 5656
5665 5671 5675 5680 5683 5685 5688 5691 5691 5692 5691 5685 5682 5681 5679 5677 5676 5676 5675 5674 5674 5674 5672 5670 5667 5665 5665 5665 5663 5660 5658 5656 5654 5654 5654 5654 5655 5655 5655 5656 5655 5654 5653
5659 5663 5666 5669 5671 5674 5677 5678 5680 5682 5680 5677 5674 5672 5670 5669 5669 5669 5669 5668 5668 5667 5666 5665 5664 5661 5661 5662 5660 5658 5654 5652 5651 5650 5649 5650 5652 5651 5650 5651 5651 5651 5652
5654 5657 5660 5663 5665 5667 5668 5670 5671 5672 5670 5667 5666 5665 5664 5663 5663 5662 5662 5662 5661 5660 5660 5659 5659 5657 5657 5658 5657 5654 5651 5648 5647 5646 5646 5645 5646 5648 5647 5646 5646 5646 5648
5653 5655 5658 5660 5661 5663 5664 5664 5663 5663 5662 5661 5659 5658 5658 5657 5656 5655 5655 5655 5655 5654 5654 5653 5653 5652 5652 5653 5652 5650 5645 5643 5642 5642 5642 5642 5643 5644 5644 5642 5641 5642 5644
5655 5657 5658 5659 5659 5660 5660 5659 5657 5656 5655 5654 5653 5652 5651 5650 5649 5649 5649 5649 5648 5648 5648 5647 5647 5647 5647 5647 5646 5644 5639 5637 5636 5636 5638 5640 5640 5641 5641 5638 5638 5637 5640
5656 5658 5658 5657 5657 5657 5656 5653 5651 5650 5650 5650 5648 5647 5646 5645 5644 5643 5643 5642 5642 5642 5642 5641 5641 5640 5640 5640 5639 5637 5633 5631 5630 5630 5631 5633 5635 5636 5636 5636 5635 5635 5637
5656 5658 5656 5656 5655 5654 5652 5649 5647 5647 5646 5644 5642 5640 5639 5639 5638 5636 5636 5635 5635 5634 5634 5633 5632 5632 5632 5632 5631 5630 5627 5626 5625 5625 5625 5627 5629 5630 5630 5630 5630 5631 5632
5655 5656 5655 5654 5653 5652 5650 5646 5645 5644 5642 5639 5636 5633 5632 5630 5629 5628 5627 5626 5626 5625 5624 5623 5622 5621 5621 5621 5621 5620 5619 5619 5618 5619 5620 5621 5622 5622 5623 5624 5625 5625 5625
5656 5656 5654 5652 5650 5649 5648 5645 5643 5641 5637 5633 5630 5627 5625 5622 5620 5619 5618 5617 5617 5616 5615 5613 5612 5611 5610 5609 5609 5609 5609 5610 5610 5611 5612 5613 5614 5614 5615 5617 5617 5618 5619
5655 5656 5654 5651 5650 5648 5645 5644 5641 5637 5632 5628 5625 5622 5619 5616 5613 5611 5609 5609 5607 5606 5606 5605 5603 5602 5601 5599 5600 5600 5600 5601 5602 5603 5603 5604 5605 5606 5608 5609 5610 5611 5612
5654 5654 5654 5652 5650 5648 5645 5642 5639 5635 5629 5625 5621 5618 5615 5612 5609 5606 5604 5601 5600 5600 5600 5599 5597 5595 5594 5594 5594 5594 5595 5596 5597 5597 5596 5597 5598 5600 5601 5603 5604 5605 5606